Location: Lower Kingswood
(51.2667°N, 0.2167°W)
Time: 19:59:09
(UTC+00:00)

CZ-2C R/B - Pass Details

Date: 26 September 2023
Orbit: 667 x 780 km, 98.3° (Epoch: 10 December)

Event Time Altitude Azimuth Distance (km) Brightness Sun altitude
Rises 02:48:14 0° 22° (NNE) 3,182 6.6 -27.7°
Reaches altitude 10° 02:50:49 10° 33° (NNE) 2,235 5.8 -27.4°
Maximum altitude 02:55:07 30° 94° (E) 1,275 4.0 -26.9°
Enters shadow 02:57:50 18° 143° (SE) 1,710 4.3 -26.5°
